sat.trackr.live / text

‹ back to catalog

UNKNOWN

NORAD 87565

UNKNOWN UNKNOWN UNKNOWN

§ Identity

Operator
Country
Launch date
Launch site
Launch vehicle
Mass (kg)
RCS (m²)

External: N2YO · Heavens-Above

§ Orbital elements

Epoch: 2026-05-20T11:22:35.891328Z

Period
102.39 min
Inclination
99.9488°
Eccentricity
0.0172829
Mean motion
14.06407497 rev/d
Perigee alt
746.4 km
Apogee alt
997.0 km
Semi-major
7,249.8 km
B*
4.2994e-4
RAAN
152.7380°
Arg perigee
101.0491°
Mean anomaly
261.0165°
Rev number
63,874

§ Raw data

UNKNOWN1 87565U          26140.47402652  .00000762  00000+0  42994-3 0  99992 87565  99.9488 152.7380 0172829 101.0491 261.0165 14.06407497638742

JSON: /api/v1/satellites/87565 · /tle

For live sub-satellite position, see the globe view (requires WebGL).

§ Visibility from observer

Set your observer location to see the next 7 days of passes ≥ 10°. The values pass through the URL so the page stays shareable.

No JS? Fill the form by hand. The geolocation button needs JavaScript.